Погода в Жезказгане

Погода в Жезказгане : погода сейчас, прогноз погоды и архив. Всё, что Вы хотите узнать о погоде в Жезказгане!

Хотите узнать прогноз погоды в Жезказгане? Тогда Вам сюда: Погода в Жезказгане

Поиск расширенной информации на нашем сайте:

Другие новости

Новости СМИ2

Главная страница сайта

Новости сайта

03.07.2017

Напоминаем, что на нашем специализированном сайте Метеоцентр.Азия вы можете получить высокодетализированные автоматические прогнозы погоды по пунктам России, СНГ и мира в авиационном формате (включающие направление и скорость ветра, видимость, явления погоды, количество и форму облачности, нижнюю и верхнюю границу облачности).


Погода в Жезказгане - сегодня

Время (UTC), дата Ветер
(°,м/с) 
Видим.   Явления Облачность Т
(°С)
Тd
(°С)
f(%) Тe
(°С)
Pmin
(гПа)
dP
(гПа)
Po
(мм)
O2
(г/м3)
Тmin Tmax R s Состояние
почвы
21 13.08.18 тихо ()   20000 м    ясно 
+17.1 +0.6 33 +17  1015.3  731  277           
00 14.08.18 тихо ()   20000 м    ясно 
+12.5 -0.6 40 +13  1016.3  0.3  732  282           
03 14.08.18 100 (В) 20000 м    ясно 
+21.1 +0.5 25 +21  1015.9  0.9  732  274           
06 14.08.18 100 (В) 20000 м    ясно 
+27.6 -0.3 16 +28  1014.5  -0.6  732  268  +12.4         
09 14.08.18 110 (В) 20000 м    ясно 
+29.8 +1.3 16 +30  1012.2  -1.9  730  265           
12 14.08.18 100 (В) 20000 м    3/0 верхняя 
[Ci fib]
+31.1 +2.4 16 +31  1010.6  -1.4  729  263           
15 14.08.18 110 (В) 20000 м    4/0 средняя 
[Ac lent]
+28 -0.1 16 +28  1010.2  -0.8  729  266    +31.5       
18 14.08.18 100 (В) 20000 м    ясно 
+23.4 -0.8 20 +23  1010.9  0.1  729  270    +31.5       
21 14.08.18 140 (ЮВ) 20000 м    3/0 средняя 
[Ac lent]
+19.6 +0.6 28 +21  1010.9  -0.5  728  274           
00 15.08.18 150 (ЮВ) 20000 м    5/0 средняя 
[Ac lent]
+20.6 +3.1 31 +21  1010.7  -0.1  728  272           
03 15.08.18 100 (В) 20000 м    5/0 средняя 
[Ac lent]
+21.6 +2.3 28 +22  1010.9  0.4  729  272           
06 15.08.18 140 (ЮВ) 20000 м    3/0 средняя 
[Ac lent]
+28.7 +1.7 18 +29  1009.8  -0.4  728  265  +18         
09 15.08.18 180 (Ю) 20000 м    3/3 1000 м 
[Cu hum]
+31.9 +3.2 16 +32  1008.1  -0.2  727  262           
12 15.08.18 190 (Ю) 20000 м    5/5 1000 м 
[Cu hum]
+32.5 +3.4 16 +33  1006.6  -1.2  727  261           
15 15.08.18 180 (Ю) 20000 м    5/5 600 м 
[Sc diur, vesp]
+29.2 +2.7 18 +29  1007  727  264    +33.4       
18 15.08.18 340 (С) 20000 м    3/0 средняя 
[Ac lent]
+23.9 +5.9 31 +24  1008.5  0.8  727  268    +33.4       
21 15.08.18 330 (СЗ) 20000 м    ясно 
+20.3 +6.7 41 +20  1008.8  -0.2  727  272           
00 16.08.18 350 (С) 20000 м    ясно 
+19.1 +7.7 48 +20  1009.4  0.5  727  273           
03 16.08.18 330 (СЗ) 20000 м    ясно 
+23.2 +8.6 39 +23  1009.4  0.5  728  269           
06 16.08.18 340 (С) 20000 м    1/1 1000 м 
[Cu hum]
+26.2 +8.5 33 +26  1009.5  0.4  728  266  +18.4         
09 16.08.18 320 (СЗ) 20000 м    1/1 1000 м 
[Cu hum]
+26.3 +6.2 28 +26  1010  0.6  728  267           
12 16.08.18 330 (СЗ) 20000 м    1/1 1000 м 
[Cu hum]
+25.4 +8.6 34 +25  1010.6  0.5  729  267           
15 16.08.18 360 (С) 20000 м    ясно 
+22.9 +9.4 42 +24  1012  0.9  730  270    +27.4       
18 16.08.18 340 (С) 20000 м    ясно 
+19.4 +10.9 58 +23  1013.5  1.1  730  273    +27.4       
21 16.08.18 340 (С) 20000 м    ясно 
+16.4 +10.7 69 +20  1014.2  0.3  731  276           
Время (UTC), дата Ветер
(°,м/с) 
Видим.   Явления Облачность Т
(°С)
Тd
(°С)
f(%) Тe
(°С)
Pmin
(гПа)
dP
(гПа)
Po
(мм)
O2
(г/м3)
Тmin Tmax R s Состояние
почвы

Для получения пояснительной информации подведите курсор к названию столбца.

ПОГОДА в Жезказгане - архив

Всё, что Вы хотите узнать о погоде в Жезказгане - удобно и подробно!

Выберите нужную дату (начиная с 1 января 2015* года) и нажмите кнопку "Найти".
Будут отображены архивные сводки погоды по пункту Жезказган, начиная с указанной даты.


Отображать данные в формате CSV (для использования в таблицах Excel)


Внимание! Наш архив погоды предназначен исключительно для личного некоммерческого использования в познавательных целях. Если Вам необходимы официальные справки о состоянии погоды (для производственных, юридических, коммерческих и т.п. целей), обращайтесь в органы Росгидромета.

*Примечание: данная дата относится к архиву по метеостанциям СССР (Россия, СНГ, Балтия).
Архив по метеостанциям Зарубежной Европы и Азии (кроме Китая) хранится 10 дней, по другим регионам земного шара (Китай, Африка, Америка, Австралия, Океания) - 1 день.

Жезказган - район местоположения метеостанции


Название, широта, долгота, высота метеостанции:
Жезказган 47.8°ш. 67.7°д. 346 м над ур. моря [Казахстан]

Дополнительная информация

В oтличие oт бoльшинства пoгoдных сайтoв мы публикуем пoдрoбную метеoинфoрмацию в детальнoм прoфессиoнальнoм фoрмате.

Характеристики температуры и влажнoсти вoздуха измеряются на высoте 2 м в тени вдали oт зданий и деревьев.
Скoрoсть ветра измеряется на высoте 10 м (на урoвне рoста челoвека скoрoсть ветра ниже в 1.5-2 раза). Если метеoстанция нахoдится в гoрoде или в лесу, тo скoрoсть ветра занижена на 2-4 м/с пo сравнению с oткрытым местoм. Скoрoсть ветра над акватoриями крупных рек и oзёр, а также на вершинах хoлмoв на 2-5 м/с выше, чем в oбычных услoвиях.
Атмoсфернoе давление в разных тoчках местнoсти мoжет значительнo oтличаться oт давления на метеoстанции, в зависимoсти oт услoвий рельефа (при пoдъёме на 10 м давление пoнижается примернo на 1 мм рт.ст.).